This is the latest recevied weather packets stored in our database for station/object N4JTC. If no packets are shown the sender has not sent any weather packets the latest 10 day(s).
| Time | Temp. | Humidity | Pressure | Rain* | Wind** | Luminosity | Snow |
|---|---|---|---|---|---|---|---|
| 1777599903 | 23.89° C | 85% | 1012.8 hPa | 0 mm | - | 0 W/m² | - |
| 1777599603 | 23.89° C | 85% | 1012.8 hPa | 0 mm | - | 0 W/m² | - |
| 1777599303 | 23.89° C | 85% | 1012.7 hPa | 0 mm | - | 0 W/m² | - |
| 1777599003 | 24.44° C | 85% | 1012.6 hPa | 0 mm | - | 0 W/m² | - |
| 1777598703 | 24.44° C | 85% | 1012.5 hPa | 0 mm | - | 0 W/m² | - |
| 1777598403 | 24.44° C | 85% | 1012.5 hPa | 0 mm | - | 0 W/m² | - |
| 1777598103 | 23.89° C | 85% | 1012.5 hPa | 0 mm | - | 0 W/m² | - |
| 1777597803 | 24.44° C | 85% | 1012.7 hPa | 0 mm | - | 0 W/m² | - |
| 1777597503 | 24.44° C | 84% | 1012.3 hPa | 0 mm | - | 0 W/m² | - |
| 1777597203 | 24.44° C | 85% | 1012.3 hPa | 0 mm | - | 0 W/m² | - |
| 1777596903 | 23.89° C | 84% | 1012.2 hPa | 0 mm | - | 0 W/m² | - |
| 1777596604 | 23.89° C | 84% | 1012.1 hPa | 0 mm | - | 0 W/m² | - |
| 1777596303 | 23.89° C | 84% | 1012.1 hPa | 0 mm | - | 0 W/m² | - |
| 1777596003 | 24.44° C | 84% | 1012 hPa | 0 mm | - | 0 W/m² | - |
| 1777595703 | 24.44° C | 84% | 1012 hPa | 0 mm | - | 0 W/m² | - |
| 1777595403 | 24.44° C | 83% | 1012 hPa | 0 mm | - | 0 W/m² | - |
| 1777595103 | 24.44° C | 83% | 1011.8 hPa | 0 mm | - | 0 W/m² | - |
| 1777594803 | 24.44° C | 82% | 1011.5 hPa | 0 mm | - | 0 W/m² | - |
| 1777594504 | 24.44° C | 82% | 1011.4 hPa | 0 mm | - | 1 W/m² | - |
| 1777594203 | 24.44° C | 81% | 1011.4 hPa | 0 mm | - | 2 W/m² | - |
| 1777593904 | 24.44° C | 81% | 1011.2 hPa | 0 mm | - | 6 W/m² | - |
| 1777593608 | 25° C | 80% | 1011.6 hPa | 0 mm | - | 9 W/m² | - |
| 1777593303 | 25.56° C | 80% | 1011.2 hPa | 0 mm | - | 12 W/m² | - |
| 1777592703 | 25.56° C | 78% | 1011.1 hPa | 0 mm | - | 19 W/m² | - |
| 1777592102 | 26.11° C | 74% | 1011 hPa | 0 mm | - | 32 W/m² | - |
* Rain latest hour (hover to see other rain measurements)
** Current wind speed in m/s (hover to see current wind gust speed)